Location: Unspecified
(0.0000°N, 0.0000°E)
Time: 19:00:11
(UTC+00:00)

MIDAS 4 DEB - Visible Passes

Search period start: 09 November 2025 00:00
Search period end: 19 November 2025 00:00
Orbit: 3306 x 3926 km, 95.8° (Epoch: 14 April)

Date Brightness Start Highest point End Pass type
(mag) Time Alt. Az. Time Alt. Az. Time Alt. Az.
09 Nov ? 20:11:51 50° E 20:14:28 52° ESE 20:32:45 10° S visible
09 Nov ? 22:57:33 31° W 22:57:33 31° W 23:11:38 10° SW visible
10 Nov ? 21:03:06 78° NNE 21:05:01 87° ESE 21:24:31 10° S visible
10 Nov ? 23:48:47 12° W 23:48:47 12° W 23:52:26 10° W visible
11 Nov ? 19:08:36 24° E 19:14:29 27° ESE 19:29:03 10° SSE visible
11 Nov ? 21:54:18 57° WNW 21:55:44 58° WNW 22:14:30 10° SSW visible
12 Nov ? 19:59:46 45° ENE 20:04:44 52° ESE 20:23:05 10° S visible
12 Nov ? 22:45:27 31° WNW 22:46:27 31° WNW 23:02:01 10° SW visible
13 Nov ? 20:50:52 64° NNE 20:55:17 86° ESE 21:14:52 10° S visible
13 Nov ? 23:36:33 12° WNW 23:36:54 12° WNW 23:43:01 10° W visible
14 Nov ? 18:56:14 20° ENE 19:04:46 27° ESE 19:19:22 10° SSE visible
14 Nov ? 21:41:55 52° NW 21:46:00 58° WNW 22:04:51 10° SSW visible
15 Nov ? 19:47:14 37° NE 19:55:01 52° ESE 20:13:24 10° S visible
15 Nov ? 22:32:53 29° WNW 22:36:42 32° WNW 22:52:24 10° SW visible
16 Nov ? 20:38:06 48° NNE 20:45:33 86° ESE 21:05:12 10° S visible
16 Nov ? 23:23:45 12° WNW 23:27:09 13° WNW 23:33:35 10° W visible
17 Nov ? 18:43:13 14° ENE 18:55:03 27° ESE 19:09:40 10° SSE visible
17 Nov ? 21:28:51 41° NNW 21:36:16 59° WNW 21:55:12 10° SSW visible
18 Nov ? 19:33:46 26° NE 19:45:18 52° ESE 20:03:44 10° S visible
18 Nov ? 22:19:23 24° NW 22:26:58 32° WNW 22:42:47 10° SW visible
